| time (UTC) | temp F | wind direction | speed MPH | gust MPH | rain 1hr in | rain 24hr in | rain mn in | humidity % | barometer mb |
| 20260504032550 | 71 | 113 | 8.0 | 19.0 | 0.00 | 0.00 | 0.00 | 52 | 1008.9 |
| 20260504031523 | 71 | 138 | 7.0 | 27.0 | 0.00 | 0.00 | 0.00 | 52 | 1008.9 |
| 20260504030526 | 71 | 104 | 11.0 | 19.0 | 0.00 | 0.00 | 0.00 | 52 | 1009.1 |
| 20260504025519 | 71 | 115 | 10.0 | 25.0 | 0.00 | 0.00 | 0.00 | 52 | 1009.2 |
| 20260504024538 | 70 | 109 | 8.0 | 16.0 | 0.00 | 0.00 | 0.00 | 52 | 1009.4 |
| 20260504023516 | 70 | 103 | 9.0 | 19.0 | 0.00 | 0.00 | 0.00 | 52 | 1009.8 |
| 20260504022534 | 70 | 98 | 8.0 | 16.0 | 0.00 | 0.00 | 0.00 | 52 | 1009.8 |
| 20260504021557 | 70 | 111 | 6.0 | 16.0 | 0.00 | 0.00 | 0.00 | 52 | 1010.2 |
| 20260504020530 | 70 | 103 | 6.0 | 18.0 | 0.00 | 0.00 | 0.00 | 52 | 1010.2 |
| 20260504015529 | 70 | 109 | 8.0 | 19.0 | 0.00 | 0.00 | 0.00 | 53 | 1010.3 |
| 20260504014532 | 70 | 104 | 8.0 | 24.0 | 0.00 | 0.00 | 0.00 | 53 | 1010.5 |
| 20260504013525 | 70 | 105 | 7.0 | 16.0 | 0.00 | 0.00 | 0.00 | 53 | 1010.5 |
| 20260504012523 | 70 | 118 | 6.0 | 15.0 | 0.00 | 0.00 | 0.00 | 53 | 1010.6 |
| 20260504011521 | 70 | 102 | 6.0 | 14.0 | 0.00 | 0.00 | 0.00 | 53 | 1010.4 |
| 20260504010519 | 69 | 116 | 6.0 | 16.0 | 0.00 | 0.00 | 0.00 | 53 | 1010.5 |
| 20260504005538 | 69 | 111 | 7.0 | 24.0 | 0.00 | 0.00 | 0.00 | 53 | 1010.4 |
| 20260504004515 | 69 | 96 | 8.0 | 19.0 | 0.00 | 0.00 | 0.00 | 54 | 1010.4 |
| 20260504003554 | 69 | 108 | 8.0 | 19.0 | 0.00 | 0.00 | 0.00 | 54 | 1010.3 |
| 20260504002532 | 69 | 119 | 8.0 | 21.0 | 0.00 | 0.00 | 0.00 | 54 | 1010.4 |
| 20260504001611 | 69 | 96 | 9.0 | 23.0 | 0.00 | 0.00 | 0.00 | 54 | 1010.4 |
| 20260504000528 | 69 | 109 | 8.0 | 19.0 | 0.00 | 0.00 | 0.00 | 54 | 1010.5 |
| 20260503235551 | 69 | 125 | 7.0 | 16.0 | 0.00 | 0.00 | 0.00 | 54 | 1010.6 |
| 20260503234525 | 68 | 116 | 9.0 | 17.0 | 0.00 | 0.00 | 0.00 | 54 | 1010.5 |
| 20260503233523 | 68 | 125 | 6.0 | 18.0 | 0.00 | 0.00 | 0.00 | 54 | 1010.6 |
| 20260503232521 | 68 | 111 | 6.0 | 22.0 | 0.00 | 0.00 | 0.00 | 54 | 1010.6 |
| 20260503231519 | 68 | 123 | 8.0 | 16.0 | 0.00 | 0.00 | 0.00 | 54 | 1010.6 |
| 20260503230518 | 68 | 117 | 5.0 | 13.0 | 0.00 | 0.00 | 0.00 | 54 | 1010.7 |
| 20260503225535 | 68 | 113 | 7.0 | 19.0 | 0.00 | 0.00 | 0.00 | 54 | 1010.7 |
| 20260503224619 | 68 | 110 | 9.0 | 19.0 | 0.00 | 0.00 | 0.00 | 54 | 1010.8 |
| 20260503223532 | 67 | 123 | 6.0 | 14.0 | 0.00 | 0.00 | 0.00 | 54 | 1010.7 |
| 20260503222530 | 67 | 137 | 6.0 | 15.0 | 0.00 | 0.00 | 0.00 | 55 | 1010.6 |
| 20260503221533 | 67 | 128 | 6.0 | 14.0 | 0.00 | 0.00 | 0.00 | 54 | 1010.5 |
| 20260503220527 | 67 | 127 | 6.0 | 18.0 | 0.00 | 0.00 | 0.00 | 54 | 1010.5 |
| 20260503215525 | 67 | 111 | 5.0 | 10.0 | 0.00 | 0.00 | 0.00 | 54 | 1010.5 |
| 20260503214603 | 67 | 154 | 4.0 | 9.0 | 0.00 | 0.00 | 0.00 | 55 | 1010.4 |
| 20260503213543 | 67 | 115 | 4.0 | 9.0 | 0.00 | 0.00 | 0.00 | 55 | 1010.4 |
| 20260503212609 | 66 | 117 | 5.0 | 13.0 | 0.00 | 0.00 | 0.00 | 55 | 1010.4 |
| 20260503211519 | 66 | 112 | 4.0 | 15.0 | 0.00 | 0.00 | 0.00 | 55 | 1010.5 |
| 20260503210535 | 66 | 117 | 4.0 | 13.0 | 0.00 | 0.00 | 0.00 | 55 | 1010.4 |
| 20260503205534 | 66 | 125 | 4.0 | 13.0 | 0.00 | 0.00 | 0.00 | 56 | 1010.3 |
| 20260503204532 | 66 | 119 | 4.0 | 13.0 | 0.00 | 0.00 | 0.00 | 56 | 1010.1 |
| 20260503203530 | 65 | 146 | 5.0 | 15.0 | 0.00 | 0.00 | 0.00 | 56 | 1010.1 |
| 20260503202528 | 65 | 117 | 6.0 | 19.0 | 0.00 | 0.00 | 0.00 | 56 | 1010.2 |
| 20260503201526 | 65 | 122 | 4.0 | 10.0 | 0.00 | 0.00 | 0.00 | 56 | 1010.1 |
| 20260503200526 | 65 | 136 | 6.0 | 13.0 | 0.00 | 0.00 | 0.00 | 56 | 1010.3 |
| 20260503195523 | 65 | 109 | 5.0 | 13.0 | 0.00 | 0.00 | 0.00 | 55 | 1010.3 |
| 20260503194541 | 65 | 114 | 5.0 | 18.0 | 0.00 | 0.00 | 0.00 | 54 | 1010.4 |
| 20260503193519 | 65 | 110 | 5.0 | 11.0 | 0.00 | 0.00 | 0.00 | 54 | 1010.2 |
| 20260503192540 | 65 | 136 | 5.0 | 16.0 | 0.00 | 0.00 | 0.00 | 54 | 1010.2 |
| 20260503191536 | 65 | 108 | 5.0 | 11.0 | 0.00 | 0.00 | 0.00 | 54 | 1010.4 |
| 20260503190535 | 65 | 123 | 4.0 | 10.0 | 0.00 | 0.00 | 0.00 | 54 | 1010.6 |
| 20260503185532 | 65 | 117 | 4.0 | 11.0 | 0.00 | 0.00 | 0.00 | 53 | 1010.7 |
| 20260503184530 | 66 | 104 | 3.0 | 9.0 | 0.00 | 0.00 | 0.00 | 53 | 1010.7 |
| 20260503183528 | 66 | 116 | 5.0 | 14.0 | 0.00 | 0.00 | 0.00 | 53 | 1010.6 |
| 20260503182527 | 66 | 120 | 3.0 | 10.0 | 0.00 | 0.00 | 0.00 | 53 | 1010.7 |
| 20260503181526 | 66 | 123 | 4.0 | 9.0 | 0.00 | 0.00 | 0.00 | 53 | 1010.9 |
| 20260503180543 | 66 | 106 | 5.0 | 11.0 | 0.00 | 0.00 | 0.00 | 53 | 1010.8 |
| 20260503175521 | 66 | 102 | 4.0 | 9.0 | 0.00 | 0.00 | 0.00 | 53 | 1010.9 |
| 20260503174519 | 66 | 102 | 4.0 | 10.0 | 0.00 | 0.00 | 0.00 | 53 | 1011.0 |
| 20260503173517 | 66 | 108 | 4.0 | 10.0 | 0.00 | 0.00 | 0.00 | 53 | 1011.1 |
| 20260503172535 | 67 | 103 | 4.0 | 10.0 | 0.00 | 0.00 | 0.00 | 53 | 1011.2 |
| 20260503171534 | 67 | 118 | 3.0 | 9.0 | 0.00 | 0.00 | 0.00 | 53 | 1011.2 |
| 20260503170532 | 67 | 132 | 5.0 | 13.0 | 0.00 | 0.00 | 0.00 | 53 | 1011.3 |
| 20260503150530 | 69 | 106 | 4.0 | 9.0 | 0.00 | 0.00 | 0.00 | 52 | 1011.7 |
| 20260503130533 | 71 | 101 | 3.0 | 10.0 | 0.00 | 0.00 | 0.43 | 53 | 1012.6 |
| 20260503110526 | 71 | 108 | 2.0 | 7.0 | 0.00 | 0.00 | 0.43 | 55 | 1012.8 |
| 20260503081540 | 71 | 118 | 2.0 | 6.0 | 0.00 | 0.00 | 0.43 | 55 | 1011.3 |
| 20260503080533 | 71 | 125 | 3.0 | 8.0 | 0.00 | 0.00 | 0.43 | 55 | 1011.3 |
| 20260503072616 | 71 | 116 | 2.0 | 7.0 | 0.00 | 0.00 | 0.43 | 55 | 1011.3 |
| 20260503071524 | 71 | 125 | 2.0 | 8.0 | 0.00 | 0.00 | 0.43 | 55 | 1011.1 |
| 20260503070522 | 71 | 126 | 5.0 | 15.0 | 0.00 | 0.00 | 0.43 | 55 | 1011.0 |
| 20260503054533 | 71 | 97 | 5.0 | 14.0 | 0.00 | 0.00 | 0.43 | 56 | 1011.1 |
| 20260503053611 | 71 | 110 | 7.0 | 15.0 | 0.00 | 0.00 | 0.43 | 56 | 1011.2 |
| 20260503052529 | 71 | 108 | 6.0 | 14.0 | 0.00 | 0.00 | 0.43 | 56 | 1011.0 |
| 20260503051522 | 71 | 105 | 7.0 | 16.0 | 0.00 | 0.00 | 0.43 | 56 | 1010.9 |
| 20260503050546 | 71 | 91 | 10.0 | 23.0 | 0.00 | 0.00 | 0.43 | 56 | 1011.1 |
| 20260503045518 | 71 | 89 | 6.0 | 19.0 | 0.00 | 0.00 | 0.43 | 57 | 1011.0 |
| 20260503044602 | 71 | 103 | 6.0 | 16.0 | 0.00 | 0.00 | 0.43 | 57 | 1010.8 |
| 20260503043535 | 71 | 100 | 10.0 | 19.0 | 0.00 | 0.00 | 0.43 | 58 | 1010.6 |
| 20260503042538 | 71 | 109 | 6.0 | 16.0 | 0.00 | 0.00 | 0.43 | 58 | 1010.5 |
| 20260503041531 | 71 | 117 | 8.0 | 18.0 | 0.00 | 0.00 | 0.43 | 58 | 1010.5 |
| 20260503040529 | 71 | 98 | 8.0 | 15.0 | 0.00 | 0.00 | 0.43 | 59 | 1010.5 |
| 20260503035528 | 71 | 97 | 7.0 | 17.0 | 0.00 | 0.00 | 0.43 | 59 | 1010.7 |
| 20260503034531 | 71 | 109 | 6.0 | 13.0 | 0.00 | 0.00 | 0.43 | 60 | 1010.6 |
| 20260503033554 | 71 | 117 | 7.0 | 16.0 | 0.00 | 0.00 | 0.43 | 60 | 1010.5 |